Wind_Speed
34 35 36 37 37 38 38 39 38 38 38 36 35 35 34 34 33 33 32 31 30 28 28 27 26 25 24 23 23 21 20 20 19 18 18 17 17 17 16 16 16 16 15
34 34 34 35 37 39 40 40 40 39 39 39 39 38 39 38 37 36 36 35 33 32 31 29 29 28 27 26 25 25 24 24 22 21 20 19 19 18 18 17 17 17 17
32 32 33 33 35 37 38 39 39 40 40 40 41 41 41 40 39 39 39 38 35 35 34 32 31 31 29 29 28 28 27 26 25 24 23 22 21 20 19 19 19 18 18
30 30 31 31 33 34 35 36 37 39 40 40 40 40 40 40 39 38 37 36 36 35 35 33 32 31 30 30 29 29 28 28 27 26 26 25 24 23 21 20 20 20 19
27 28 28 28 30 31 31 32 34 35 37 39 39 39 38 38 38 38 36 35 35 35 34 33 32 32 32 31 31 30 30 30 29 29 28 27 26 26 25 23 22 22 21
26 27 27 28 29 29 30 31 33 34 35 35 37 37 37 36 36 36 36 36 35 34 34 33 33 33 32 33 32 31 31 31 30 30 30 30 29 28 27 26 25 24 24
25 26 27 27 28 29 30 31 32 33 33 35 36 36 35 35 35 34 34 34 33 33 35 34 34 33 32 33 33 32 31 31 31 31 32 31 31 30 29 28 27 26 26
23 24 25 26 27 28 29 31 32 33 33 35 36 35 36 35 34 34 33 32 32 33 34 34 34 34 33 33 32 32 31 31 31 32 32 32 32 32 31 30 30 28 27
23 23 24 25 26 27 29 30 32 33 34 35 36 36 36 34 34 33 31 30 30 30 32 33 33 33 33 33 32 31 31 31 31 32 32 33 33 33 32 31 31 30 29
23 24 25 25 26 27 28 30 31 33 34 35 36 37 37 36 34 32 30 30 30 30 30 31 31 32 33 33 33 33 32 32 32 32 32 33 32 32 32 32 32 32 31
25 25 26 26 27 28 29 30 31 33 34 35 36 37 37 37 36 34 31 31 31 31 30 31 31 31 33 33 33 33 33 34 33 33 33 33 33 33 32 33 33 33 32
27 27 27 27 28 29 30 31 32 33 35 35 36 37 37 37 36 35 34 32 32 32 31 31 31 31 33 33 34 33 33 34 33 33 33 33 34 34 34 34 34 33 33
30 29 28 28 29 29 30 31 32 34 35 35 36 36 37 37 37 36 35 34 34 34 33 33 32 32 33 32 32 32 32 33 34 33 33 33 34 35 35 35 35 35 34
32 31 31 31 31 31 31 32 33 34 34 35 35 36 36 36 37 36 36 36 35 35 35 34 34 34 34 33 33 32 31 33 34 34 34 35 34 35 35 35 36 37 36
34 33 32 32 32 32 33 33 33 34 34 34 34 35 35 36 36 37 37 37 37 37 36 36 35 34 34 34 34 35 34 33 33 34 35 37 36 35 34 34 36 37 37
36 35 34 33 33 34 34 34 34 34 34 34 34 34 34 35 35 36 36 37 37 37 36 36 36 35 35 35 34 34 35 35 34 35 35 36 36 36 36 35 37 38 38
38 37 36 36 35 35 35 35 35 35 35 34 34 33 33 34 34 35 35 37 37 37 37 36 36 36 36 35 35 35 35 35 35 35 35 36 37 37 37 37 37 37 39
40 39 38 38 37 36 36 36 36 35 35 34 34 33 33 32 33 33 34 35 36 36 37 36 36 36 37 37 37 36 35 35 36 36 36 36 37 38 38 38 38 39 39
43 42 40 40 39 38 37 37 37 36 35 34 33 32 31 31 31 31 32 33 34 35 36 36 36 36 37 37 37 36 35 35 37 37 36 36 36 36 36 37 38 39 39
48 45 43 42 41 40 39 38 37 36 34 33 33 32 30 30 29 29 29 30 31 32 33 35 35 36 37 37 37 36 36 36 36 37 36 34 33 34 35 35 36 37 37
51 49 47 44 43 41 39 38 37 36 34 33 32 31 29 28 27 26 27 28 29 30 31 33 34 35 35 35 35 35 35 34 35 33 32 31 31 31 32 31 31 32 32
54 51 49 46 44 42 40 39 37 36 34 33 31 29 28 25 24 24 25 27 28 29 30 32 32 33 34 33 32 32 33 32 31 29 28 28 28 28 28 27 26 25 25
56 53 50 47 44 43 41 39 37 35 33 31 29 27 26 24 22 23 24 25 26 27 28 28 30 30 31 30 29 29 30 29 28 27 26 25 24 23 22 21 22 22 23
55 52 49 47 44 43 41 39 37 35 33 30 27 25 23 22 21 21 22 23 23 24 26 27 27 26 26 26 26 26 26 26 26 25 24 22 21 20 19 18 19 20 22
52 50 47 45 43 41 40 38 36 34 31 28 26 23 21 20 19 20 21 21 22 22 23 23 23 23 24 24 24 24 24 24 23 22 19 16 15 14 14 15 17 19 21
47 46 45 43 42 40 38 36 35 33 30 27 25 23 20 19 19 18 18 17 17 19 20 21 21 21 22 22 21 21 21 20 18 16 14 12 12 12 13 14 16 18 20
Wind_Direction
285 284 282 281 279 278 276 275 274 272 270 269 268 269 269 269 270 270 269 267 266 263 262 262 260 261 259 257 253 252 251 247 243 241 239 237 236 236 237 239 240 241 242
285 285 284 281 279 277 277 276 275 272 271 269 268 267 268 268 268 269 268 267 265 263 260 258 257 257 257 257 255 253 251 249 245 243 241 239 238 237 237 239 240 240 241
286 286 285 284 282 279 278 277 275 275 273 272 270 268 268 268 269 269 267 267 266 263 260 257 255 255 256 257 256 253 251 250 248 245 243 242 240 239 238 239 240 240 240
287 287 287 285 284 284 281 279 278 277 275 273 270 270 269 270 270 271 271 270 267 264 258 255 254 253 253 255 257 254 252 250 249 247 244 242 242 241 239 239 240 240 240
290 290 289 289 288 288 286 284 280 279 277 275 272 270 270 269 269 272 272 269 267 264 258 254 253 253 254 254 255 255 253 251 249 248 246 243 242 242 241 240 241 241 241
292 292 291 291 290 290 290 288 286 282 282 279 275 273 271 271 271 271 270 267 266 264 258 253 251 252 253 252 252 253 253 251 248 247 246 244 242 242 243 242 241 241 241
294 294 293 292 292 291 290 289 288 285 284 282 280 279 278 277 275 275 272 269 266 263 259 253 250 251 251 251 250 251 250 250 248 247 246 244 243 243 243 242 242 242 242
295 295 294 293 293 293 292 290 288 287 286 285 284 281 280 279 279 277 276 272 267 262 258 252 250 251 250 249 249 249 248 249 248 246 245 244 243 244 244 243 242 241 242
295 296 296 295 294 295 294 292 289 287 286 284 282 281 280 279 277 278 278 272 269 265 257 252 250 250 248 247 247 249 249 249 248 246 246 246 245 244 245 245 242 241 241
295 297 297 296 296 296 296 294 291 288 286 284 281 280 280 279 276 275 273 274 271 266 261 255 251 249 248 248 247 249 249 248 249 247 247 245 244 244 246 246 244 243 242
293 294 296 296 296 297 297 296 292 290 287 285 282 279 277 276 275 273 271 272 269 264 261 257 254 252 251 249 248 249 250 250 249 247 247 246 244 244 245 245 244 243 242
291 292 294 295 297 297 297 297 294 292 289 286 283 279 276 274 272 270 267 267 267 263 259 255 253 253 252 251 249 249 248 249 248 247 246 245 244 243 245 245 243 242 242
289 290 291 293 295 296 297 298 296 294 291 287 283 280 277 273 270 267 265 264 262 259 257 255 253 252 251 250 249 248 248 248 248 247 246 245 243 243 244 245 243 241 241
287 288 289 291 293 294 295 297 297 296 293 289 285 281 278 274 269 266 263 261 259 258 256 254 253 251 250 250 249 247 247 247 247 247 244 243 242 241 243 244 242 241 241
285 285 287 288 290 293 295 296 297 297 294 290 286 282 278 274 270 265 262 260 258 256 255 253 251 250 250 249 248 247 247 247 248 247 243 242 241 240 242 244 243 242 242
285 285 286 287 288 290 293 294 296 297 294 291 287 283 279 275 270 266 261 259 257 256 253 251 249 248 249 248 248 247 247 247 248 246 244 242 241 241 242 243 244 243 243
284 284 284 285 286 287 289 292 294 295 294 291 289 284 280 276 271 266 261 258 256 255 252 249 248 248 248 248 247 248 247 246 247 246 245 243 243 244 244 244 246 246 247
283 282 283 284 284 285 287 289 291 292 292 291 289 285 281 277 271 266 261 258 255 253 251 249 247 247 248 247 247 247 246 246 246 246 246 246 246 246 245 246 247 247 248
282 281 281 281 282 282 284 286 288 289 289 289 288 285 281 277 272 266 260 256 253 251 249 248 246 245 245 245 244 243 244 246 245 246 248 249 248 248 248 249 250 250 249
281 280 279 279 279 279 280 283 285 286 286 286 286 283 280 276 270 264 259 253 249 248 247 246 245 243 243 243 242 243 244 246 245 246 248 250 251 251 250 254 255 254 253
278 278 277 276 276 276 277 279 281 282 283 283 283 281 278 274 266 261 256 250 247 244 243 243 242 242 241 241 241 242 242 243 245 246 248 250 251 251 251 253 256 255 256
275 275 274 273 272 272 272 275 277 278 279 279 279 277 274 271 264 258 252 248 246 243 242 240 242 241 240 240 240 239 239 242 242 243 245 248 250 251 254 255 255 256 256
272 271 270 269 268 267 268 270 272 273 275 274 274 274 271 265 259 254 251 246 242 240 238 237 238 238 236 236 236 236 237 238 238 241 244 246 246 247 249 253 255 257 259
268 267 265 263 262 262 262 264 265 267 269 269 269 269 265 261 253 249 246 241 238 238 236 234 231 229 228 230 232 231 231 233 235 236 239 241 241 244 246 250 254 259 263
263 261 259 256 255 255 256 256 259 263 263 261 263 261 259 254 248 243 239 235 234 232 228 223 220 220 222 224 225 227 229 229 231 231 230 233 233 239 247 254 260 265 268
256 254 251 249 247 248 249 250 253 255 255 254 255 255 252 246 239 232 230 227 225 221 218 215 215 216 220 223 223 224 225 222 219 219 220 225 233 241 250 258 265 270 275
Height
5875 5873 5872 5870 5868 5867 5866 5865 5864 5864 5863 5863 5863 5863 5862 5862 5862 5862 5862 5862 5862 5863 5864 5864 5864 5865 5866 5866 5867 5868 5869 5870 5871 5872 5873 5874 5875 5877 5878 5879 5881 5882 5883
5868 5866 5864 5862 5860 5859 5858 5857 5856 5855 5855 5855 5854 5854 5853 5853 5854 5854 5854 5854 5854 5855 5856 5857 5858 5859 5859 5860 5861 5862 5863 5865 5866 5867 5868 5870 5871 5873 5874 5875 5877 5878 5879
5860 5858 5857 5855 5853 5850 5849 5848 5847 5846 5846 5846 5845 5845 5845 5845 5845 5845 5845 5845 5846 5847 5848 5849 5850 5851 5853 5853 5854 5856 5857 5859 5860 5862 5863 5865 5867 5868 5870 5871 5873 5874 5875
5852 5850 5849 5847 5845 5842 5841 5840 5839 5837 5837 5836 5836 5835 5835 5836 5836 5836 5835 5835 5836 5837 5839 5840 5842 5843 5845 5846 5848 5849 5850 5852 5854 5856 5858 5860 5861 5863 5865 5866 5868 5870 5871
5845 5843 5841 5839 5837 5835 5833 5832 5830 5828 5828 5827 5826 5826 5826 5826 5827 5827 5827 5827 5827 5828 5829 5831 5834 5836 5837 5839 5840 5842 5843 5845 5847 5849 5851 5853 5855 5858 5859 5861 5863 5865 5866
5838 5836 5834 5832 5830 5828 5826 5824 5822 5821 5820 5818 5817 5816 5817 5817 5817 5817 5817 5818 5818 5819 5820 5822 5825 5827 5829 5831 5832 5834 5836 5838 5840 5842 5844 5847 5849 5851 5854 5855 5857 5859 5861
5831 5829 5827 5825 5823 5821 5819 5817 5815 5813 5812 5810 5809 5808 5808 5808 5808 5808 5808 5809 5810 5810 5811 5813 5816 5818 5820 5822 5824 5826 5828 5830 5832 5834 5837 5839 5842 5844 5847 5849 5851 5853 5855
5825 5823 5821 5818 5816 5814 5812 5810 5808 5806 5805 5803 5801 5800 5800 5801 5801 5800 5800 5800 5801 5801 5803 5805 5807 5810 5812 5814 5816 5818 5820 5822 5825 5827 5829 5832 5834 5837 5839 5842 5844 5847 5849
5819 5816 5814 5812 5810 5807 5805 5803 5800 5798 5797 5795 5793 5792 5792 5793 5793 5793 5793 5793 5793 5794 5795 5796 5799 5801 5803 5806 5808 5810 5813 5815 5817 5819 5822 5824 5827 5830 5832 5834 5837 5840 5842
5812 5809 5807 5805 5803 5800 5798 5795 5793 5790 5789 5787 5785 5784 5783 5783 5784 5785 5786 5785 5786 5786 5787 5789 5790 5793 5795 5798 5800 5803 5805 5807 5809 5811 5814 5816 5819 5822 5825 5827 5830 5832 5835
5804 5802 5800 5798 5795 5793 5790 5787 5785 5782 5780 5778 5777 5776 5775 5774 5775 5776 5777 5778 5778 5778 5779 5780 5782 5785 5787 5789 5792 5794 5797 5799 5801 5804 5806 5809 5811 5814 5817 5819 5822 5825 5827
5797 5795 5792 5790 5787 5785 5782 5780 5777 5774 5771 5769 5768 5767 5766 5766 5766 5766 5768 5769 5769 5770 5771 5773 5774 5777 5778 5781 5783 5786 5788 5791 5793 5795 5798 5800 5803 5806 5809 5811 5814 5817 5819
5789 5787 5784 5782 5779 5777 5774 5771 5768 5765 5763 5760 5758 5757 5756 5757 5757 5757 5758 5760 5761 5761 5763 5764 5766 5768 5770 5772 5774 5777 5780 5782 5785 5787 5789 5792 5795 5797 5800 5803 5806 5809 5811
5780 5778 5776 5773 5771 5768 5765 5762 5759 5756 5753 5751 5749 5747 5747 5747 5747 5747 5749 5750 5751 5752 5753 5756 5757 5759 5761 5764 5766 5769 5771 5774 5776 5778 5781 5783 5786 5789 5792 5794 5797 5800 5803
5771 5769 5766 5764 5761 5759 5756 5753 5750 5747 5744 5742 5739 5738 5737 5737 5737 5737 5738 5740 5741 5742 5744 5746 5748 5750 5752 5754 5757 5760 5762 5765 5767 5770 5772 5775 5778 5781 5783 5786 5789 5791 5794
5760 5758 5756 5754 5752 5749 5747 5744 5741 5738 5735 5732 5730 5728 5727 5726 5726 5727 5728 5729 5730 5732 5733 5736 5739 5741 5743 5746 5748 5750 5753 5756 5759 5761 5764 5767 5769 5772 5775 5778 5780 5783 5785
5749 5747 5745 5743 5741 5739 5737 5734 5731 5728 5725 5723 5720 5718 5717 5716 5716 5716 5717 5718 5719 5721 5723 5726 5729 5731 5734 5737 5739 5742 5744 5747 5750 5753 5756 5758 5761 5763 5766 5769 5771 5774 5776
5737 5735 5734 5732 5730 5728 5726 5724 5721 5719 5716 5713 5711 5709 5707 5706 5706 5706 5706 5708 5709 5711 5714 5717 5720 5722 5725 5728 5730 5733 5736 5739 5742 5744 5747 5749 5752 5755 5757 5760 5762 5765 5767
5723 5722 5721 5720 5719 5717 5715 5713 5711 5709 5706 5703 5701 5699 5697 5696 5696 5696 5696 5697 5699 5701 5704 5707 5710 5713 5716 5719 5721 5724 5728 5730 5733 5736 5738 5741 5744 5746 5748 5751 5753 5755 5758
5709 5708 5708 5707 5706 5705 5704 5702 5700 5698 5696 5694 5691 5689 5688 5686 5686 5686 5687 5688 5690 5692 5695 5698 5701 5704 5707 5710 5713 5716 5719 5722 5725 5728 5730 5733 5736 5738 5740 5742 5745 5746 5748
5693 5693 5693 5693 5693 5692 5692 5691 5689 5688 5686 5684 5682 5681 5679 5678 5677 5678 5679 5680 5682 5684 5687 5690 5692 5695 5698 5701 5705 5708 5711 5714 5717 5720 5723 5725 5728 5730 5732 5734 5736 5737 5739
5676 5677 5678 5678 5679 5679 5679 5679 5678 5677 5676 5675 5674 5672 5671 5670 5670 5670 5671 5672 5674 5677 5679 5682 5685 5688 5691 5694 5698 5701 5704 5707 5710 5713 5716 5718 5721 5722 5724 5726 5728 5730 5732
5657 5659 5661 5663 5664 5666 5667 5667 5667 5667 5666 5666 5665 5664 5663 5663 5662 5663 5664 5665 5667 5670 5672 5675 5678 5681 5684 5688 5691 5694 5697 5700 5704 5707 5709 5711 5714 5715 5718 5719 5721 5723 5725
5638 5641 5644 5647 5649 5651 5653 5655 5656 5656 5656 5657 5656 5656 5656 5656 5656 5657 5658 5659 5661 5663 5666 5668 5672 5675 5678 5682 5685 5688 5691 5694 5697 5700 5703 5706 5707 5710 5712 5714 5716 5718 5719
5617 5621 5626 5630 5634 5637 5640 5643 5644 5646 5647 5648 5649 5649 5649 5649 5650 5651 5652 5654 5656 5658 5661 5664 5667 5670 5674 5677 5680 5683 5686 5689 5692 5695 5697 5700 5702 5705 5707 5709 5710 5711 5712
5598 5603 5608 5613 5619 5623 5627 5630 5633 5636 5638 5640 5641 5642 5643 5644 5645 5646 5648 5650 5652 5655 5658 5660 5663 5667 5670 5673 5676 5679 5682 5685 5687 5690 5693 5695 5698 5701 5703 5704 5705 5705 5705